Regional Weather Roundup
Issued by NWS Green Bay, WI

Home | Current Version | Previous Version | Graphics & Text | Print | Product List | Glossary Off
Versions: 1 2 3 4 5 6 7 8 9 10 11 12 13 14 15 16 17 18 19 20 21 22 23 24 25 26 27 28 29 30 31 32 33 34 35 36 37 38 39 40 41 42 43 44 45 46 47 48 49 50

000
ASUS43 KGRB 241859
RWRGRB

NORTH-CENTRAL AND NORTHEAST WISCONSIN REGIONAL WEATHER ROUNDUP
NATIONAL WEATHER SERVICE GREEN BAY WI
200 PM CDT FRI OCT 24 2014

WIZ005-009-010>012-018-019-242000-
NORTH CENTRAL WISCONSIN

CITY           SKY/WX    TMP DP  RH WIND       PRES   REMARKS
IRONWOOD       SUNNY     64  45  48 SW12G24   29.79F
MANITOWISH WTR NOT AVBL
ARBOR VITAE    NOT AVBL
EAGLE RIVER    NOT AVBL
LAND O LAKES   NOT AVBL
RHINELANDER    SUNNY     57  47  69 VRB7      29.90F
PHILLIPS       NOT AVBL
ANTIGO         NOT AVBL
TOMAHAWK       NOT AVBL
MERRILL        NOT AVBL
$$

WIZ013-073-242000-
NORTHEAST WISCONSIN

CITY           SKY/WX    TMP DP  RH WIND       PRES   REMARKS
IRON MOUNTAIN  MOSUNNY   57  48  72 SE6       29.88F
MARINETTE      CLOUDY    50  46  87 W7        29.92F
$$

WIZ017-030-035>037-045-242000-
CENTRAL WISCONSIN

CITY           SKY/WX    TMP DP  RH WIND       PRES   REMARKS
MEDFORD        NOT AVBL
WAUSAU         PTSUNNY   51  48  89 S7        29.92F
MOSINEE        CLOUDY    50  50 100 S8        29.94F FOG
MARSHFIELD     MOSUNNY   55  49  80 SE6       29.92F
WISC RAPIDS      N/A     56  50  80 S5        29.94F
STEVENS POINT  NOT AVBL
WAUPACA        NOT AVBL
SHAWANO        NOT AVBL
CLINTONVILLE   NOT AVBL
$$

WIZ038-039-048-051-242000-
FOX VALLEY

CITY           SKY/WX    TMP DP  RH WIND       PRES   REMARKS
NWS GREEN BAY  CLOUDY    52  49  89 SW5       29.94F FOG
APPLETON         N/A     50  48  93 SW8       29.96F FOG
OSHKOSH        CLOUDY    52  50  93 SW8       29.96F
FOND DU LAC    CLOUDY    52  49  89 SW10      29.97F
$$

WIZ022-050-052-242000-
EAST CENTRAL WISCONSIN

CITY           SKY/WX    TMP DP  RH WIND       PRES   REMARKS
STURGEON BAY   PTSUNNY   54  48  82 SW5       29.94F
MANITOWOC      NOT AVBL
SHEBOYGAN      MOSUNNY   60  49  66 SW6       29.95F
$$

LMZ563-521-522-541>543-242000-
LAKESHORE

STATION/POSITION TIME  TEMP    WIND        PRES    VSBY  WAVE
                       AIR SEA DIR/SP/G                  HT/PER
                 (UTC) (F)     (DEG/KT/KT) (MB)    (MI)  (FT/S)
SHEBOYGAN LKSHOR 1800   50 50  160/ 10/ 12 1016.0F
KEWAUNEE LKSHORE 1800   52     170/  8/ 12 1013.7F
NORTHPORT PIER   1800   52     210/  3/  7 1013.9F
N MID LAKE BUOY  1800   50 51  210/ 12/ 14 1014.6F         1/ 5
SISTER BAY LKSHO 1800          260/  8/  9   N/A
STURGEON BAY CG  1800   51 50  180/  4     1015.8      6   1
CHAMBERS ISLAND  1800   48     210/  7/ 12 1014.6F
MENOMINEE LKSHOR 1800   49     200/  4/  6 1014.5F
$$



USA.gov is the U.S. government's official web portal to all federal, state and local government web resources and services.